Weather in Tatariv

Ukraine / Ivano-Frankovsk District     48°20′36″N   24°34′36″E
temp.,
°C
wind,
m/s
gust,
m/s
humid.,
%
clouds,
%
prec.,
mm/h
press.,
hPa
HPBL,
m
13 may, thu
thu1300:00+7e129960 0.0 100759
03:00+6ssw119838 0.0 100619
06:00+8sw2295100 0.1 100476
09:00+10wsw2292100 0.4 1003359
12:00+9sw2489100 0.4 1004421
15:00+9sw3683100 0.5 1003828
18:00+8sw2388100 0.1 1004390
21:00+8ssw229153 0.2 100491
14 may, fri
fri1400:00+6sw239651 0.1 100574
03:00+6sw2498100 0.3 1005157
06:00+7sw31095100 0.3 10041035
09:00+7ssw31094100 0.6 10051087
12:00+7sw41186100 0.3 10061203
15:00+5sw31295100 0.9 10081100
18:00+5sw31397100 1.1 10071348
21:00+5sw31197100 2.6 10081087
15 may, sat
sat1500:00+5sw2899100 0.6 1010843
03:00+6sw2399100 0.9 1011360
06:00+6sw1299100 0.0 1011306
09:00+7sw129164 0.1 1012388
12:00+12sw126288 0.3 10111338
15:00+14sw125577 0.8 10101441
18:00+13sw125988 0.6 10101323
21:00+8ese1188100 0.8 101010
16 may, sun
sun1600:00+6s1194100 0.0 101112
03:00+6ssw1191100 0.0 101111
06:00+6ssw1187100 0.0 101011
09:00+13sw1263100 0.0 1008419
12:00+12ssw2276100 1.3 1008457
15:00+11wsw1288100 3.3 1008275
18:00+11sw118698 0.2 1007424
21:00+9sw119474 0.3 100718
17 may, mon
mon1700:00+7sw2497100 1.4 1008237
03:00+6sw2297100 1.7 100951
06:00+5sw119875 0.0 100813
09:00+9wsw128799 0.2 1007311
12:00+13wsw23655 0.3 10061113
15:00+16wsw334338 0.4 10052133
18:00+15w13476 0.3 10051627
21:00+8sse1191100 0.4 100610